www.pogodaiklimat.ru

Погода и климат >> Архив погоды >> Сенегал >> Матам


ПОГОДА в Матаме

  • Прогноз погоды в Матаме
  • Монитор погоды в Матаме

АРХИВ ПОГОДЫ в Матаме

Время (UTC), дата Ветер
(напр.,м/с)
 
Видим.   Явления Облачность Т
(С)
Тd
(С)
f
(%)
Тe
(С)
Тes
(С)
Комфортность P
(гПа)
Po
(гПа)
Тmin
(С)
Tmax
(С)
R
(мм)
R24
(мм)
S
(см)
21 16.09 СЗ 3 10 км 5/0
[Ci sp]
+28.0 +20.8 65 +35 +35 очень
душно
1011.2 1009.3
00 17.09 ЮВ 6 7000 м зарница 9/1 900 м
[Cb calv Ac As]
+27.6 +22.0 72 +36 +36 очень
душно
1013.8 1011.9
03 17.09 З 2 10 км 9/0
[Ac As]
+25.4 +22.3 83 +33 +33 очень
душно
1009.8 1007.9
06 17.09 С 2 10 км 6/0
[Ac trans Ci sp]
+26.7 +20.7 70 +33 +33 очень
душно
1009.0 1007.1 +24.0
09 17.09 Ю 1 10 км 4/0
[Ac trans]
+29.2 +22.0 65 +38 +43 очень
душно
1011.7 1009.8
12 17.09 СЗ 2 10 км 6/0
[Ci sp]
+32.6 +23.1 57 +43 +60 опасность
перегрева
1012.1 1010.2
15 17.09 ЮВ 1 10 км 3/0
[Ci sp]
+37.0 +21.3 40 +44 +60 опасность
перегрева
1008.9 1007.0
18 17.09 В 1 10 км ясно +36.5 +23.3 47 +47 +48 опасность
перегрева
1009.0 1007.1 +37.1
21 17.09 З 2 10 км ясно +32.4 +24.8 64 +45 +45 опасность
перегрева
1010.0 1008.1
00 18.09 ЮЗ 2 10 км ясно +30.5 +24.1 69 +42 +42 опасность
перегрева
1011.3 1009.4
03 18.09 СЗ 1 10 км ясно +29.5 +23.9 72 +41 +41 опасность
перегрева
1009.9 1008.0
06 18.09 З 2 10 км 4/0
[Ac trans]
+28.5 +23.6 75 +39 +39 очень
душно
1009.9 1008.0 +28.0
09 18.09 С 1 10 км 4/0
[Ci sp]
+30.0 +25.8 78 +45 +51 опасность
перегрева
1012.7 1010.8
12 18.09 С 2 10 км 5/5 480 м
[Sc]
+34.0 +25.2 60 +48 +58 опасность
перегрева
1012.1 1010.2
15 18.09 СЗ 1 10 км 4/4 480 м
[Sc]
+37.2 +25.2 50 +51 +61 опасность
перегрева
1009.1 1007.2
18 18.09 СВ 1 10 км 4/4 480 м
[Sc]
+37.0 +24.4 49 +49 +50 опасность
перегрева
1007.8 1005.9 +38.2
21 18.09 СЗ 1 10 км 5/3 400 м
[Cb calv Ac trans]
+33.4 +24.4 59 +46 +46 опасность
перегрева
1010.3 1008.4
00 19.09 СЗ 2 8000 м гроза без осадков 9/3 400 м
[Cb cap Ac As]
+26.5 +23.5 84 +36 +36 очень
душно
1011.6 1009.7 3
03 19.09 СЗ 1 8000 м гроза без осадков 9/3 400 м
[Cb cap Ac As]
+26.5 +22.9 81 +35 +35 очень
душно
1010.5 1008.6
06 19.09 СВ 1 10 км {гроза} 8/0
[Ac trans Ci sp]
+26.5 +23.6 84 +36 +36 очень
душно
1009.3 1007.4 +25.5 3
09 19.09 В 1 10 км 6/0
[Ac trans Ci sp]
+28.4 +24.3 78 +40 +44 очень
душно
1010.9 1009.0
12 19.09 Ю 1 10 км 8/8 480 м
[Sc]
+34.0 +24.4 57 +46 +51 опасность
перегрева
1012.5 1010.6
15 19.09 ЮЗ 2 10 км 8/3 480 м
[Sc Ac trans]
+35.5 +25.9 58 +51 +57 опасность
перегрева
1011.5 1009.6
18 19.09 Ю 2 10 км 6/3 480 м
[Sc Ac trans]
+34.0 +25.7 62 +49 +50 опасность
перегрева
1010.4 1008.5 +36.0
21 19.09 ЮЗ 1 10 км 4/0
[Ac trans]
+30.5 +26.4 79 +47 +47 опасность
перегрева
1011.3 1009.4
00 20.09 З 1 10 км 6/0
[Ac trans]
+29.5 +25.9 81 +44 +44 опасность
перегрева
1013.5 1011.6
03 20.09 З 1 10 км 4/0
[Ac trans]
+28.5 +25.1 82 +41 +41 опасность
перегрева
1012.8 1010.9
06 20.09 СЗ 1 10 км ясно +27.6 +25.3 87 +40 +40 очень
душно
1012.1 1010.2 +27.0
09 20.09 СЗ 1 10 км 4/1 480 м
[Sc Ci sp]
+29.2 +25.3 80 +43 +48 опасность
перегрева
1013.1 1011.2
12 20.09 СЗ 1 10 км 5/3 480 м
[Sc Ci sp]
+34.0 +25.7 62 +49 +64 опасность
перегрева
1013.5 1011.6
15 20.09 Ю 1 12 км 3/3 480 м
[Sc]
+37.4 +24.3 47 +49 +61 опасность
перегрева
1009.7 1007.8
18 20.09 ЮЗ 1 10 км 3/3 480 м
[Sc]
+37.0 +25.4 52 +51 +52 опасность
перегрева
1009.0 1007.1 +38.4
21 20.09 штиль 0 10 км в посл. час дождь 5/3 400 м
[Cb calv Ac trans]
+30.5 +27.1 82 +48 +48 опасность
перегрева
1011.0 1009.1
00 21.09 Ю 5 10 км гроза, ливневой дождь 9/3 400 м
[Cb cap Ac As]
+26.0 +23.1 84 +35 +35 очень
душно
1013.2 1011.3 7
03 21.09 СЗ 1 10 км {гроза, дождь} 9/0
[Ac As]
+26.0 +23.1 84 +35 +35 очень
душно
1011.1 1009.2
06 21.09 СВ 1 10 км {гроза, дождь} 8/0 60 м
[Ac As]
+25.5 +23.3 88 +34 +34 очень
душно
1012.6 1010.4 +24.4 7
09 21.09 В 3 10 км 6/0
[Ac trans Ci sp]
+27.2 +24.3 84 +38 +41 очень
душно
1014.5 1012.6
12 21.09 ЮВ 1 10 км 6/0
[Ac trans Ci sp]
+33.0 +24.2 60 +45 +62 опасность
перегрева
1013.7 1011.8
15 21.09 Ю 1 10 км 5/0
[Ac trans Ci sp]
+36.1 +24.5 51 +48 +62 опасность
перегрева
1012.5 1010.6
18 21.09 Ю 1 10 км 6/0
[Ci sp]
+36.0 +22.4 46 +45 +46 опасность
перегрева
1011.2 1009.3 +37.5
21 21.09 штиль 0 10 км 6/0
[]
+31.0 +24.5 68 +43 +43 опасность
перегрева
1012.0 1010.1
00 22.09 штиль 0 10 км ясно +30.5 +25.6 75 +45 +45 опасность
перегрева
1013.6 1011.7
03 22.09 штиль 0 10 км ясно +29.0 +26.2 85 +44 +44 опасность
перегрева
1011.8 1009.9
06 22.09 штиль 0 10 км 4/0
[Ac trans]
+28.0 +25.5 86 +41 +41 опасность
перегрева
1012.0 1010.1 +27.0
09 22.09 Ю 3 10 км 6/4 480 м
[Sc Ac trans]
+29.0 +22.4 68 +38 +40 очень
душно
1014.8 1012.8
12 22.09 Ю 2 10 км 6/0
[Ci sp]
+32.2 +22.4 56 +41 +58 опасность
перегрева
1014.5 1012.6
15 22.09 Ю 1 10 км 6/3 480 м
[Sc Ac trans Ci sp]
+36.0 +21.5 43 +44 +53 опасность
перегрева
1010.0 1008.1
18 22.09 Ю 1 10 км 6/0
[Ac trans Ci sp]
+34.6 +22.0 48 +43 +44 опасность
перегрева
1009.7 1007.8 +36.5
21 22.09 ЮЗ 1 10 км 4/0
[Ac trans]
+31.5 +23.7 63 +43 +43 опасность
перегрева
1011.4 1009.5
00 23.09 СЗ 1 10 км 6/0 <50 м
[Ac trans]
+31.0 +23.9 66 +43 +43 опасность
перегрева
1012.7 1010.8
03 23.09 СЗ 1 10 км 4/0
[Ac trans]
+30.0 +24.0 70 +41 +41 опасность
перегрева
1009.6 1007.7
06 23.09 З 1 10 км 8/0
[Ac trans]
+29.2 +24.4 75 +41 +41 опасность
перегрева
1010.8 1008.9 +28.9
09 23.09 С 2 10 км 5/0
[Ac trans Ci sp]
+30.8 +24.7 70 +44 +48 опасность
перегрева
1014.0 1012.1
12 23.09 С 2 10 км 4/3 480 м
[Sc Ci sp]
+34.5 +25.2 59 +49 +62 опасность
перегрева
1013.8 1011.9
15 23.09 СЗ 2 10 км 4/4 480 м
[Sc]
+37.0 +25.2 51 +51 +59 опасность
перегрева
1009.8 1007.9
18 23.09 С 2 10 км 4/3 450 м
[Sc Ac trans]
+36.1 +24.6 52 +49 +50 опасность
перегрева
1010.6 1008.9 +38.0

 

Местоположение метеостанции Матам (Сенегал): широта 15.65 долгота -13.25 высота над уровнем моря 17 м.

В архиве по умолчанию представлена погода в Матаме за последнюю неделю. Архивные данные за месяц целиком и за предыдущие месяцы, начиная с января 2011 года, Вы можете получить, выбрав интересующий диапазон дат из раскрывающегося списка и нажав кнопку "Ввод!".


*Определитесь, кто Вы:
робот инопланетянин человек

Внимание! Время в таблицах - всемирное. Для получения местного времени необходимо прибавить поправку, которая равна 0 ч.

Смотрите также архив погоды в соседних городах и на ближайших метеорологических станциях:

Погода в Каэди (Мавритания) (62 км)
Погода в Фатото (Гамбия) (198 км)
Погода в Лингере (Сенегал) (202 км)
Погода в Подоре (Сенегал) (214 км)
Погода в Тамбакунде (Сенегал) (214 км)
Погода в Киффе (Мавритания) (226 км)
Погода в Каесе (Мали) (238 км)
Погода в Бутилимите (Мавритания) (259 км)
Погода в Джорджтауне (Гамбия) (287 км)
Погода в Росо (Мавритания) (289 км)

Пояснения к столбцам:

Ветер - указаны скорость ветра в м/с - средняя за 10 мин, порывы в срок и между сроками (в фигурных скобках) и направление, откуда дует ветер: С - северный, СВ - северо-восточный, В - восточный, ЮВ - юго-восточный, Ю - южный, ЮЗ - юго-западный, З - западный, СЗ - северо-западный.
Видимость - горизонтальная дальность видимости в метрах или километрах. При видимости от 1 до 10 км при отсутствии осадков обычно наблюдается дымка, при ухудшении видимости до 1 км и менее - туман. В сухую погоду видимость может ухудшаться дымом, пылью или мглою.
Явления - указаны атмосферные явления, наблюдавшиеся в срок или в последний час перед сроком; фигурными скобками обозначены явления, наблюдавшиеся между сроками (за 1-3 часа до срока); квадратными скобками обозначены град или гололедные отложения с указанием их диаметра в мм.
Облачность - указаны через наклонную черту общая и нижняя облачность в баллах и высота нижней границы облаков в метрах; квадратными скобками обозначены формы облаков: Ci - перистые, Cs - перисто-слоистые, Cc - перисто-кучевые, Ac - высококучевые, As - высокослоистые, Sc - слоисто-кучевые, Ns - слоисто-дождевые, Cu - кучевые, Cb - кучево-дождевые. Подробнее классификацию облаков см. в Атласе облаков (PDF).
T - Температура воздуха - температура, измеренная на высоте 2 м над землей.
Td - Температура точки росы - температура, при понижении до которой содержащийся в воздухе водяной пар достигнет насыщения.
f - Относительная влажность воздуха - влажноcть воздуха, измеренная на высоте 2 м над землей.
Te - Эффективная температура - температура, которую ощущает одетый по сезону человек в тени. Характеристика душности погоды. При расчете учитывается влияние влажности воздуха и скорости ветра на теплоощущения человека.
Tes - Эффективная температура на солнце - температура, которую ощущает человек, с поправкой на солнечный нагрев. Характеристика знойности погоды. Зависит от высоты солнца над горизонтом, облачности и скорости ветра. Ночью, в пасмурную погоду, а также при ветре 12 м/с и более поправка равна нулю.
P - Атмосферное давление - приведенное к уровню моря атмосферное давление.
Po - Атмосферное давление - измеренное на уровне метеостанции атмосферное давление.
Tmin - Минимальная температура - минимум температуры воздуха на высоте 2 м над землей.
Tmax - Максимальная температура - максимум температуры воздуха на высоте 2 м над землей.
R - Количество осадков - Количество выпавших осадков за период времени, мм. При наведении курсора мыши на число - период времени, за который выпало указанное количество осадков.
R24 - Количество осадков - Количество выпавших осадков за 24 часа, мм.
S - Снежный покров - Высота снежного покрова, см. При наведении курсора мыши на число - состояние снежного покрова и степень покрытия местности в баллах.